When you browse on this site, cookies collect data to enhance your experience and personalize the content and advertising you see.
Visit our Privacy Policy to learn more. By continuing to use the site, you agree to this use of cookies and data.
  • In Hungary
  • List of Countries
  • For 7 days
  • Water Temperature
  • Weather Map
  • News
  • Weather Widgets
  • user-avatar
    Login

    Hourly Weather Shura

    Today, 16 September, Monday

    Time Temperature Precipitation Wind Pressure Humidity
    00:00 +4°C° 0 mm 3 mps 741 mmHg 87%
    01:00 +4°C° 0 mm 3 mps 740 mmHg 87%
    02:00 +4°C° 0 mm 3 mps 740 mmHg 88%
    03:00 +4°C° 0 mm 3 mps 739 mmHg 89%
    04:00 +4°C° 0 mm 4 mps 739 mmHg 88%
    05:00 +5°C° 0 mm 4 mps 738 mmHg 87%
    06:00 +5°C° 0 mm 5 mps 738 mmHg 87%
    07:00 +5°C° 0 mm 6 mps 737 mmHg 84%
    08:00 +5°C° 0 mm 6 mps 736 mmHg 81%
    09:00 +6°C° 0 mm 7 mps 735 mmHg 78%
    10:00 +6°C° 0.2 mm 7 mps 735 mmHg 81%
    11:00 +6°C° 0.2 mm 7 mps 734 mmHg 84%
    12:00 +8°C° 0.2 mm 7 mps 733 mmHg 87%
    13:00 +8°C° 0.5 mm 7 mps 733 mmHg 88%
    14:00 +8°C° 0.5 mm 7 mps 732 mmHg 90%
    15:00 +9°C° 0.5 mm 6 mps 732 mmHg 92%
    16:00 +9°C° 1.5 mm 6 mps 731 mmHg 93%
    17:00 +9°C° 1.5 mm 5 mps 731 mmHg 94%
    18:00 +9°C° 1.5 mm 5 mps 730 mmHg 95%
    19:00 +8°C° 0.2 mm 5 mps 730 mmHg 95%
    20:00 +8°C° 0.2 mm 5 mps 730 mmHg 94%
    21:00 +7°C° 0.2 mm 5 mps 730 mmHg 94%
    22:00 +7°C° 0 mm 5 mps 730 mmHg 94%
    23:00 +7°C° 0 mm 5 mps 730 mmHg 94%

    Tomorrow, 17 September, Tuesday

    Time Temperature Precipitation Wind Pressure Humidity
    00:00 +7°C° 0 mm 5 mps 731 mmHg 94%
    01:00 +6°C° 0 mm 5 mps 731 mmHg 95%
    02:00 +6°C° 0 mm 5 mps 731 mmHg 95%
    03:00 +5°C° 0 mm 5 mps 731 mmHg 96%
    04:00 +5°C° 0 mm 5 mps 731 mmHg 96%
    05:00 +5°C° 0 mm 5 mps 731 mmHg 96%
    06:00 +4°C° 0 mm 6 mps 731 mmHg 96%
    07:00 +5°C° 0 mm 6 mps 731 mmHg 94%
    08:00 +7°C° 0 mm 6 mps 731 mmHg 92%
    09:00 +7°C° 0 mm 6 mps 731 mmHg 91%
    10:00 +7°C° 0.2 mm 6 mps 731 mmHg 90%
    11:00 +8°C° 0.2 mm 6 mps 731 mmHg 90%
    12:00 +8°C° 0.2 mm 6 mps 731 mmHg 90%
    13:00 +8°C° 0.4 mm 6 mps 731 mmHg 87%
    14:00 +9°C° 0.4 mm 7 mps 731 mmHg 85%
    15:00 +9°C° 0.4 mm 7 mps 731 mmHg 83%
    16:00 +8°C° 0.1 mm 6 mps 731 mmHg 84%
    17:00 +8°C° 0.1 mm 6 mps 731 mmHg 86%
    18:00 +7°C° 0.1 mm 5 mps 731 mmHg 88%
    19:00 +7°C° 0 mm 5 mps 731 mmHg 89%
    20:00 +6°C° 0 mm 5 mps 731 mmHg 90%
    21:00 +6°C° 0 mm 5 mps 732 mmHg 91%
    22:00 +6°C° 0 mm 5 mps 732 mmHg 92%
    23:00 +5°C° 0 mm 5 mps 732 mmHg 94%

    Day after tomorrow, 18 September, Wednesday

    Time Temperature Precipitation Wind Pressure Humidity
    00:00 +5°C° 0 mm 5 mps 732 mmHg 95%
    01:00 +5°C° 0 mm 5 mps 732 mmHg 94%
    02:00 +5°C° 0 mm 5 mps 732 mmHg 94%
    03:00 +5°C° 0 mm 5 mps 733 mmHg 94%
    04:00 +5°C° 0 mm 5 mps 733 mmHg 94%
    05:00 +3°C° 0 mm 5 mps 733 mmHg 95%
    06:00 +3°C° 0 mm 5 mps 733 mmHg 95%
    07:00 +5°C° 0 mm 5 mps 733 mmHg 92%
    08:00 +6°C° 0 mm 5 mps 733 mmHg 90%
    09:00 +6°C° 0 mm 5 mps 733 mmHg 87%
    10:00 +7°C° 0.1 mm 5 mps 733 mmHg 82%
    11:00 +9°C° 0.1 mm 5 mps 733 mmHg 77%
    12:00 +10°C° 0.1 mm 5 mps 733 mmHg 72%
    13:00 +11°C° 0.4 mm 4 mps 733 mmHg 71%
    14:00 +11°C° 0.4 mm 4 mps 733 mmHg 71%
    15:00 +11°C° 0.4 mm 4 mps 733 mmHg 71%
    16:00 +10°C° 0.3 mm 3 mps 733 mmHg 76%
    17:00 +9°C° 0.3 mm 2 mps 733 mmHg 82%
    18:00 +7°C° 0.3 mm 2 mps 733 mmHg 88%
    19:00 +7°C° 0 mm 2 mps 733 mmHg 89%
    20:00 +6°C° 0 mm 2 mps 732 mmHg 91%
    21:00 +5°C° 0 mm 2 mps 732 mmHg 92%
    22:00 +6°C° 0 mm 1 mps 732 mmHg 93%
    23:00 +6°C° 0 mm 1 mps 732 mmHg 93%

    19 September, Thursday

    Time Temperature Precipitation Wind Pressure Humidity
    00:00 +5°C° 0 mm 1 mps 732 mmHg 94%
    01:00 +5°C° 0 mm 1 mps 732 mmHg 94%
    02:00 +5°C° 0 mm 1 mps 732 mmHg 95%
    03:00 +5°C° 0 mm 1 mps 732 mmHg 95%
    04:00 +5°C° 0 mm 1 mps 732 mmHg 96%
    05:00 +5°C° 0 mm 1 mps 731 mmHg 96%
    06:00 +3°C° 0 mm 2 mps 731 mmHg 97%
    07:00 +5°C° 0 mm 2 mps 732 mmHg 93%
    08:00 +5°C° 0 mm 3 mps 732 mmHg 89%
    09:00 +8°C° 0 mm 3 mps 733 mmHg 85%
    10:00 +8°C° 0.2 mm 3 mps 733 mmHg 83%
    11:00 +8°C° 0.2 mm 4 mps 734 mmHg 80%
    12:00 +8°C° 0.2 mm 4 mps 734 mmHg 78%
    13:00 +8°C° 0.4 mm 4 mps 735 mmHg 78%
    14:00 +8°C° 0.4 mm 5 mps 736 mmHg 79%
    15:00 +8°C° 0.4 mm 5 mps 737 mmHg 79%
    16:00 +7°C° 0.2 mm 5 mps 737 mmHg 83%
    17:00 +6°C° 0.2 mm 4 mps 738 mmHg 87%
    18:00 +5°C° 0.2 mm 4 mps 738 mmHg 91%
    19:00 +4°C° 0 mm 3 mps 739 mmHg 91%
    20:00 +4°C° 0 mm 3 mps 739 mmHg 91%
    21:00 +4°C° 0 mm 3 mps 740 mmHg 91%
    22:00 +4°C° 0 mm 3 mps 740 mmHg 91%
    23:00 +4°C° 0 mm 3 mps 741 mmHg 91%

    20 September, Friday

    Time Temperature Precipitation Wind Pressure Humidity
    00:00 +4°C° 0 mm 3 mps 741 mmHg 91%
    01:00 +3°C° 0.1 mm 3 mps 742 mmHg 91%
    02:00 +4°C° 0.1 mm 2 mps 742 mmHg 91%
    03:00 +4°C° 0.1 mm 2 mps 742 mmHg 91%
    04:00 +3°C° 0 mm 2 mps 742 mmHg 92%
    05:00 +3°C° 0 mm 2 mps 742 mmHg 93%
    06:00 +2°C° 0 mm 2 mps 743 mmHg 94%
    07:00 +3°C° 0 mm 2 mps 743 mmHg 87%
    08:00 +4°C° 0 mm 2 mps 743 mmHg 81%
    09:00 +5°C° 0 mm 2 mps 744 mmHg 75%
    10:00 +6°C° 0.1 mm 2 mps 744 mmHg 71%
    11:00 +7°C° 0.1 mm 2 mps 744 mmHg 66%
    12:00 +8°C° 0.1 mm 2 mps 744 mmHg 61%
    13:00 +8°C° 0.1 mm 2 mps 744 mmHg 60%
    14:00 +8°C° 0.1 mm 3 mps 744 mmHg 60%
    15:00 +8°C° 0.1 mm 3 mps 744 mmHg 59%
    16:00 +7°C° 0.1 mm 3 mps 744 mmHg 64%
    17:00 +6°C° 0.1 mm 2 mps 744 mmHg 70%
    18:00 +4°C° 0.1 mm 2 mps 744 mmHg 75%
    19:00 +4°C° 0 mm 2 mps 744 mmHg 77%
    20:00 +3°C° 0 mm 2 mps 744 mmHg 79%
    21:00 +3°C° 0 mm 2 mps 745 mmHg 81%
    22:00 +2°C° 0 mm 2 mps 745 mmHg 82%
    23:00 +2°C° 0 mm 2 mps 745 mmHg 82%

    21 September, Saturday

    Time Temperature Precipitation Wind Pressure Humidity
    00:00 +2°C° 0 mm 2 mps 745 mmHg 83%
    01:00 +2°C° 0 mm 2 mps 745 mmHg 84%
    02:00 +2°C° 0 mm 2 mps 745 mmHg 85%
    03:00 +1°C° 0 mm 2 mps 745 mmHg 86%
    04:00 +1°C° 0 mm 2 mps 745 mmHg 88%
    05:00 -1°C° 0 mm 2 mps 745 mmHg 90%
    06:00 -1°C° 0 mm 2 mps 745 mmHg 93%
    07:00 0°C° 0 mm 3 mps 745 mmHg 86%
    08:00 +2°C° 0 mm 3 mps 745 mmHg 79%
    09:00 +3°C° 0 mm 4 mps 746 mmHg 73%
    10:00 +4°C° 0 mm 4 mps 746 mmHg 68%
    11:00 +5°C° 0 mm 4 mps 745 mmHg 63%
    12:00 +6°C° 0 mm 5 mps 745 mmHg 58%
    13:00 +6°C° 0.1 mm 5 mps 745 mmHg 61%
    14:00 +6°C° 0.1 mm 5 mps 745 mmHg 63%
    15:00 +5°C° 0.1 mm 5 mps 745 mmHg 66%
    16:00 +4°C° 0.1 mm 4 mps 745 mmHg 72%
    17:00 +3°C° 0.1 mm 4 mps 745 mmHg 78%
    18:00 +2°C° 0.1 mm 3 mps 745 mmHg 85%
    19:00 +2°C° 0.1 mm 3 mps 745 mmHg 87%
    20:00 +2°C° 0.1 mm 3 mps 745 mmHg 89%
    21:00 +1°C° 0.1 mm 3 mps 746 mmHg 91%
    22:00 +1°C° 0 mm 3 mps 745 mmHg 92%
    23:00 +1°C° 0 mm 3 mps 745 mmHg 93%
    Show more